User: anonymous   Login
Location: Newark
(34.0111°N, 88.4892°W)
Time: 21:51:32
(UTC+00:00)
Language:

CAS-4B - Orbit

View from above orbital plane
View from above orbital plane
View from above satellite
View from above satellite

Ground track
Ground track

The orbit data is extracted from the following two-line orbital elements,

1 42759U 17034B   20158.55259259 +.00000089 +00000-0 +18906-4 0  9995
2 42759 043.0179 086.9430 0012220 319.8871 033.7170 15.09823881164318
Epoch (UTC): 06 June 2020 13:15:44
Eccentricity: 0.0012220
inclination: 43.0179°
perigee height: 528 km
apogee height: 545 km
right ascension of ascending node: 86.9430°
argument of perigee: 319.8871°
revolutions per day: 15.09823881
mean anomaly at epoch: 33.7170°
orbit number at epoch: 16431

The dashed part of the orbit path shows where the satellite is in the earth's shadow,  

DLR